Weather reports worldwide

Advertisment
Huelva, Spain (8383): temperature & dewpoint: 11.06.2019 05:00:00 - 17.06.2019 05:00:00 (CEST)Huelva, Spain (8383): wind speed: 11.06.2019 05:00:00 - 17.06.2019 05:00:00 (CEST)Huelva, Spain (8383): wind direction: 11.06.2019 05:00:00 - 17.06.2019 05:00:00 (CEST)Huelva, Spain (8383): reduced air pressure: 11.06.2019 05:00:00 - 17.06.2019 05:00:00 (CEST)Huelva, Spain (8383): visibility: 11.06.2019 05:00:00 - 17.06.2019 05:00:00 (CEST)Huelva, Spain (8383): precipitation: 11.06.2019 05:00:00 - 17.06.2019 05:00:00 (CEST)
Date & Time tt [°C] td [°C] ff [km/h] ff [kn] dd ppp [hPa] vv [km] rr [mm]
17.06.2019 05:00:00 13,3 8,6 8 4 NE 1017,7 17 -
17.06.2019 04:00:00 14,2 10,2 4 2 NNE 1017,9 16 0,0
17.06.2019 03:00:00 14,6 11,2 4 2 SE 1018,5 16 0,0
17.06.2019 02:00:00 16,1 12,5 2 1 NW 1018,5 16 -
17.06.2019 01:00:00 16,7 12,6 2 1 SSW 1018,7 16 0,0
17.06.2019 00:00:00 17,4 12,7 5 3 SSE 1018,8 16 0,0
16.06.2019 23:00:00 18,0 12,2 9 5 S 1018,3 16 -
16.06.2019 22:00:00 20,3 11,0 9 5 SW 1017,7 20 0,0
16.06.2019 21:00:00 22,5 11,2 11 6 SSW 1017,4 20 0,0
16.06.2019 20:00:00 23,5 9,8 13 7 SW 1017,5 20 -
16.06.2019 19:00:00 23,9 10,2 18 10 SW 1017,4 20 0,0
16.06.2019 18:00:00 23,9 11,2 22 12 SW 1017,8 20 0,0
16.06.2019 17:00:00 25,0 11,5 18 10 SSW 1017,6 20 -
16.06.2019 16:00:00 26,0 12,4 16 9 SSW 1017,4 20 0,0
16.06.2019 15:00:00 25,9 12,0 18 10 SSW 1017,6 20 0,0
16.06.2019 14:00:00 26,0 12,4 11 6 SSW 1017,9 19 -
16.06.2019 13:00:00 25,2 12,4 15 8 SSW 1018,0 19 0,0
16.06.2019 12:00:00 22,1 10,9 5 3 ESE 1017,9 19 0,0
16.06.2019 11:00:00 20,5 10,3 5 3 E 1017,7 19 -
16.06.2019 10:00:00 18,9 9,4 9 5 N 1017,8 20 0,0
16.06.2019 09:00:00 17,2 9,4 8 4 N 1017,2 20 0,0
16.06.2019 08:00:00 15,9 9,1 4 2 NE 1016,7 20 -
16.06.2019 07:00:00 15,7 8,9 8 4 NNE 1016,5 20 0,0
16.06.2019 06:00:00 16,7 9,4 9 5 N 1016,3 19 0,0
16.06.2019 05:00:00 17,2 9,6 5 3 NNW 1016,2 19 -
16.06.2019 04:00:00 17,8 9,7 13 7 WNW 1016,4 19 0,0
16.06.2019 03:00:00 18,4 9,5 13 7 WNW 1016,7 20 0,0
16.06.2019 02:00:00 18,8 9,3 15 8 WNW 1017,0 20 -
16.06.2019 01:00:00 20,1 9,0 9 5 WNW 1017,5 20 0,0
16.06.2019 00:00:00 19,2 10,5 4 2 NW 1017,7 19 0,0
15.06.2019 23:00:00 20,3 10,7 11 6 W 1017,7 20 -
15.06.2019 22:00:00 21,1 10,9 16 9 W 1017,1 20 0,0
15.06.2019 21:00:00 22,4 10,2 21 11 W 1017,0 20 0,0
15.06.2019 20:00:00 23,5 9,8 24 13 W 1017,0 20 -
15.06.2019 19:00:00 24,0 9,2 28 15 W 1017,4 20 0,0
15.06.2019 18:00:00 24,1 8,5 26 14 WSW 1017,9 20 0,0
15.06.2019 17:00:00 23,9 10,6 26 14 WSW 1018,5 20 -
15.06.2019 16:00:00 23,9 10,9 24 13 SW 1019,0 20 0,0
15.06.2019 15:00:00 26,0 8,9 16 9 SSW 1019,2 20 0,0
15.06.2019 14:00:00 25,6 9,0 13 7 WSW 1019,8 20 -
15.06.2019 13:00:00 24,9 7,1 11 6 NNW 1020,3 20 0,0
15.06.2019 12:00:00 22,9 7,8 8 4 NNW 1020,5 20 0,0
15.06.2019 11:00:00 20,9 8,8 9 5 N 1020,8 20 -
15.06.2019 10:00:00 19,1 9,8 9 5 NNE 1021,1 20 0,0
15.06.2019 09:00:00 16,4 10,0 8 4 NNE 1021,0 20 0,0
15.06.2019 08:00:00 14,0 9,6 4 2 ENE 1020,6 20 -
15.06.2019 07:00:00 13,5 9,7 4 2 NNW 1020,3 20 0,0
15.06.2019 06:00:00 14,1 9,7 8 4 NW 1019,9 20 0,0
15.06.2019 05:00:00 14,6 9,4 11 6 WNW 1019,9 20 -
15.06.2019 04:00:00 14,9 8,6 5 3 NW 1019,9 20 0,0
15.06.2019 03:00:00 15,5 6,8 11 6 WNW 1020,2 20 0,0
15.06.2019 02:00:00 16,5 6,0 13 7 NW 1020,4 20 -
15.06.2019 01:00:00 17,0 6,5 11 6 WNW 1020,4 19 0,0
15.06.2019 00:00:00 17,5 7,2 15 8 WNW 1020,1 20 0,0
14.06.2019 23:00:00 17,5 10,1 9 5 WNW 1019,4 20 -
14.06.2019 22:00:00 18,1 11,9 15 8 WSW 1018,4 20 0,0
14.06.2019 21:00:00 18,8 11,1 28 15 WSW 1018,1 20 0,0
14.06.2019 20:00:00 19,9 10,3 28 15 SW 1017,9 20 -
14.06.2019 19:00:00 20,6 10,4 29 16 WSW 1017,7 20 0,0
14.06.2019 18:00:00 21,4 9,6 34 18 SW 1017,6 20 0,0
14.06.2019 17:00:00 21,7 9,9 29 16 SW 1017,5 20 -
14.06.2019 16:00:00 21,4 10,8 31 17 WSW 1017,8 20 0,0
14.06.2019 15:00:00 20,7 10,5 29 16 WSW 1018,1 20 0,0
14.06.2019 14:00:00 21,5 9,1 26 14 SW 1018,2 20 -
14.06.2019 13:00:00 21,2 9,4 16 9 SW 1018,1 20 0,0
14.06.2019 12:00:00 20,5 7,5 18 10 WNW 1017,9 20 0,0
14.06.2019 11:00:00 19,4 7,5 18 10 WNW 1017,7 20 -
14.06.2019 10:00:00 17,4 8,8 16 9 WNW 1017,2 20 0,0
14.06.2019 09:00:00 15,3 9,0 16 9 NW 1016,1 20 0,0
14.06.2019 08:00:00 13,4 8,7 16 9 WNW 1015,4 10 -
14.06.2019 07:00:00 12,9 8,2 15 8 WNW 1014,6 20 0,0
14.06.2019 06:00:00 13,8 7,6 8 4 WNW 1014,2 20 0,0
14.06.2019 05:00:00 14,7 7,0 13 7 NW 1013,5 20 -
14.06.2019 04:00:00 15,5 6,8 13 7 WNW 1013,2 20 0,0
14.06.2019 03:00:00 16,4 6,8 15 8 WNW 1013,3 20 0,0
14.06.2019 02:00:00 16,7 7,6 13 7 WNW 1013,3 20 -
14.06.2019 01:00:00 17,7 8,0 15 8 WNW 1013,2 20 0,0
14.06.2019 00:00:00 19,4 7,5 18 10 WNW 1012,8 20 0,0
13.06.2019 23:00:00 20,1 7,5 13 7 WNW 1011,5 20 -
13.06.2019 22:00:00 21,0 5,7 15 8 W 1010,9 20 0,0
13.06.2019 21:00:00 22,2 8,7 24 13 WSW 1010,8 20 0,0
13.06.2019 20:00:00 23,3 7,8 24 13 SW 1010,2 20 -
13.06.2019 19:00:00 23,6 7,2 24 13 SW 1009,9 20 0,0
13.06.2019 18:00:00 23,1 8,0 18 10 SW 1009,9 20 0,0
13.06.2019 17:00:00 26,2 6,8 26 14 WSW 1010,1 20 -
13.06.2019 16:00:00 27,6 4,6 21 11 SSW 1010,2 20 0,0
13.06.2019 15:00:00 27,0 4,1 15 8 SW 1010,5 20 0,0
13.06.2019 14:00:00 26,3 4,1 11 6 W 1010,9 20 -
13.06.2019 13:00:00 24,7 5,0 13 7 NW 1011,1 20 0,0
13.06.2019 12:00:00 22,6 5,5 13 7 NW 1011,4 20 0,0
13.06.2019 11:00:00 20,1 7,5 13 7 NW 1011,6 18 -
13.06.2019 10:00:00 17,5 7,8 8 4 NNW 1011,8 20 0,0
13.06.2019 09:00:00 14,7 7,5 18 10 NW 1011,4 20 0,0
13.06.2019 08:00:00 13,3 6,6 16 9 WNW 1011,1 12 -
13.06.2019 07:00:00 13,3 5,9 8 4 NNW 1011,2 20 0,0
13.06.2019 06:00:00 14,0 5,6 5 3 NNW 1010,9 20 0,0
13.06.2019 05:00:00 15,1 5,3 11 6 WNW 1010,9 20 -
13.06.2019 04:00:00 16,0 5,0 8 4 WNW 1010,9 20 0,0
13.06.2019 03:00:00 17,4 5,0 13 7 WNW 1010,9 20 0,0
13.06.2019 02:00:00 18,6 4,7 18 10 WNW 1011,0 20 -
13.06.2019 01:00:00 19,4 5,1 16 9 WNW 1010,7 20 0,0
13.06.2019 00:00:00 20,1 8,1 15 8 W 1010,6 20 0,0
12.06.2019 23:00:00 20,0 12,5 21 11 WSW 1010,0 20 -
12.06.2019 22:00:00 20,3 14,6 24 13 WSW 1009,7 19 0,0
12.06.2019 21:00:00 22,3 14,4 22 12 WSW 1009,6 20 0,0
12.06.2019 20:00:00 23,7 14,1 26 14 WSW 1009,4 19 -
12.06.2019 19:00:00 24,5 15,7 28 15 WSW 1009,6 20 0,0
12.06.2019 18:00:00 27,4 13,0 18 10 SW 1010,1 20 0,0
12.06.2019 17:00:00 27,6 13,2 21 11 SW 1010,5 20 -
12.06.2019 16:00:00 27,0 13,4 18 10 WSW 1011,1 20 0,0
12.06.2019 15:00:00 27,0 15,1 15 8 SSW 1011,7 20 0,0
12.06.2019 14:00:00 25,9 15,0 13 7 SSW 1012,5 10 -
12.06.2019 13:00:00 24,7 15,3 13 7 SSW 1012,9 19 0,0
12.06.2019 12:00:00 24,2 15,7 13 7 S 1013,0 18 0,0
12.06.2019 11:00:00 22,6 15,4 13 7 SSW 1013,1 9 -
12.06.2019 10:00:00 21,0 14,9 9 5 S 1012,8 17 0,0
12.06.2019 09:00:00 17,7 5,0 8 4 ENE 1012,7 18 0,0
12.06.2019 08:00:00 16,3 4,0 5 3 NNE 1011,8 11 -
12.06.2019 07:00:00 15,8 5,1 5 3 NE 1011,3 20 0,0
12.06.2019 06:00:00 17,0 6,2 13 7 NW 1010,8 20 0,0
12.06.2019 05:00:00 17,5 6,1 11 6 WNW 1010,9 20 -
12.06.2019 04:00:00 18,0 5,9 8 4 N 1011,0 20 0,0
12.06.2019 03:00:00 18,6 2,8 15 8 WNW 1011,1 20 0,0
12.06.2019 02:00:00 21,0 -0,4 13 7 NNW 1011,4 20 -
12.06.2019 01:00:00 22,3 0,1 15 8 NNW 1011,5 20 0,0
12.06.2019 00:00:00 22,8 -0,7 8 4 WNW 1011,4 20 0,0
11.06.2019 23:00:00 24,9 -2,7 16 9 N 1011,1 20 -
11.06.2019 22:00:00 26,2 -0,8 16 9 N 1010,3 20 0,0
11.06.2019 21:00:00 24,9 11,8 15 8 WSW 1010,1 20 0,0
11.06.2019 20:00:00 25,2 12,8 22 12 SW 1009,9 20 -
11.06.2019 19:00:00 25,3 12,2 24 13 SW 1010,2 20 0,0
11.06.2019 18:00:00 24,9 13,1 28 15 SW 1010,6 20 0,0
11.06.2019 17:00:00 25,8 13,6 28 15 SW 1011,0 20 -
11.06.2019 16:00:00 29,2 8,8 21 11 WNW 1011,4 20 0,0
11.06.2019 15:00:00 27,7 9,0 21 11 WNW 1012,0 20 0,0
11.06.2019 14:00:00 26,3 9,2 11 6 NW 1012,5 25 -
11.06.2019 13:00:00 24,5 9,2 9 5 N 1013,1 20 0,0
11.06.2019 12:00:00 22,4 9,5 15 8 WNW 1013,8 20 0,0
11.06.2019 11:00:00 20,1 9,3 15 8 NW 1013,7 18 -
11.06.2019 10:00:00 17,9 9,3 15 8 NW 1013,9 20 0,0
11.06.2019 09:00:00 16,2 8,9 16 9 N 1014,0 20 0,0
11.06.2019 08:00:00 15,2 8,7 11 6 N 1013,9 16 -
11.06.2019 07:00:00 14,6 7,9 9 5 N 1013,8 20 0,0
11.06.2019 06:00:00 14,9 7,4 5 3 NNW 1014,1 20 0,0
11.06.2019 05:00:00 15,4 6,9 13 7 WNW 1014,1 20 -

tt = temperature
td = dewpoint
ff = wind speed
dd = wind direction
ppp = reduced air pressure
vv = visibility
rr = precipitation

Next stations